FENGYUN 1C DEB, 41832

Orbit data source: Space-Track

FENGYUN 1C DEB, 41832 is space debris in SSO originally from a launch on Mon, 10 May 1999 UTC launched from the Taiyaun Space Center, China (TSC). Fengyun 1C debris stems from the Chinese weather satellite Fengyun-1C, which was intentionally destroyed by a Chinese anti-satellite missile in 2007. This event dramatically increased the amount of space debris, with thousands of trackable fragments posing hazards to satellites and human spaceflight. The Fengyun 1C debris cloud has become a focal point in discussions about space sustainability and the need for international regulations to prevent the creation of new debris.

Loading next visibility...
Identifier
41832, 1999-025EYK
Orbit
SSO
Country
Flag of CNCN / PRC
Related business
Manufacturer
Unknown
Mission
Spacecraft
Bus & Motor
Unknown
Mass
Unknown
Launch date (UTC)
1999-05-10 (27 years ago)
Launch vehicle
Unknown
Launch site
Taiyaun Space Center, China (TSC)
Object type
Payload
Rocket body
Debris
Shape & HBR
Unknown shape, 0.1 m
Radar Cross Section
Small (<0.1 m²)

Expand to show TLE details & history
Last TLE update: 2 days ago

TLE from 2 days ago
0 FENGYUN 1C DEB
1 41832U 99025EYK 26261.13912946  .00001818  00000-0  76979-3 0  9994
2 41832  98.7100 328.3760 0055601 134.9547 225.6161 14.25839808513307
Epoch: 2026-09-18T03:20Z
TLE epoch observation values (Epoch: 2026-09-18T03:20:20.785Z)
Latitude
-0.00005°
Longitude
-78.7769°
Altitude
836.65 km
Speed
7.42 km/s
True Right ascension
21h 53m 30s
True Declination
0° 00' 00"
Sunlit
Object was in full shadow at epoch
Visualization orbit readout
Latitude
Unknown
Longitude
Unknown
Altitude
Unknown
Speed
Unknown
Apparent Right ascension
Unknown
Apparent Declination
Unknown
Sunlit
N/A
Visualization observer readout
Local Sidereal Time
06:22:21
Azimuth
Unknown
Elevation
Unknown
Doppler factor
Unknown
Orbital elements
Apogee altitude
842.748 km
Perigee altitude
762.894 km
Semi-major axis
7,180.958 km
Eccentricity
0.00556
Inclination
98.71°
RAAN
328.376°
Arg. of periapsis
134.9547°
True anomaly
225.16296°
Mean anomaly
225.6161°
Eccentric anomaly
225.38931°
Mean motion
3.56672 °/min
Orbital period
100.93 mins
BSTAR
0.00076979
Loading maneuver chart data...
Computing Atmospheric mass density...

Documentation

Showing up to 5 results
|